Home > Weather > Bryansk > Past weeks

Flag for Russia Past Weather in Bryansk, Russia — Yesterday and Last 2 Weeks

Now
55 °F

Low clouds.


Feels Like: 54 °F
Forecast: 53 / 75 °F
Wind: 6 mph from South

Location: Brjansk

Current Time: May 25, 2016 at 8:32:34 AM

Latest Report: May 25, 2016 at 8:00 AM


Visibility: 6 mi

Pressure: 29.74 "Hg

Humidity: 88%

Dew Point: 52 °F

Location of BryanskLocation

Past Weather in Bryansk — Graph

°F

Bryansk Temperature Yesterday

Maximum temperature yesterday: 66 °F (at 5:00 PM)
Minimum temperature yesterday: 50 °F (at 5:00 AM)
Average temperature yesterday: 58 °F

High & Low Weather Summary for the Past Weeks

 TemperatureHumidityPressure
High77 °F (May 10, 12:30 PM)100% (May 18, 6:00 AM)30.15 "Hg (May 18, 6:00 AM)
Low41 °F (May 16, 5:00 AM)26% (May 10, 2:30 PM)29.56 "Hg (May 15, 5:00 AM)
Average59 °F67%29.80 "Hg
* Reported May 10 7:00 AM — May 25 7:30 AM, Bryansk, Weather by CustomWeather, © 2016

Note: Actual official high and low records may vary slightly from our data, if they occured in-between our weather recording intervals... More about our weather records

Advertising

Bryansk Weather History for the Previous 24 Hours

Scroll right to see more
 ConditionsComfort  
Time TempWeatherWind HumidityBarometerVisibility
7:30 AM
Wed, May 25
54 °FLow clouds.6 mph94%29.74 "Hg4 mi
7:00 AM55 °FLow clouds.1 mph88%29.74 "Hg4 mi
6:30 AM55 °FFog.1 mph88%29.74 "Hg2 mi
6:00 AM54 °FFog.1 mph94%29.74 "Hg2 mi
5:00 AM54 °FFog.1 mph94%29.74 "Hg2 mi
4:00 AM54 °FFog.1 mph94%29.74 "Hg2 mi
6:00 PM
Tue, May 24
63 °FPartly sunny.10 mph73%29.77 "HgN/A
5:30 PM63 °FPartly sunny.6 mph68%29.77 "HgN/A
5:00 PM66 °FPartly sunny.3 mph60%29.77 "HgN/A
4:30 PM63 °FPartly sunny.6 mph73%29.77 "HgN/A
4:00 PM63 °FPartly sunny.8 mph73%29.80 "HgN/A
3:30 PM64 °FPartly sunny.8 mph73%29.80 "HgN/A
3:00 PM61 °FPartly sunny.6 mph83%29.80 "HgN/A
2:30 PM57 °FSprinkles. Partly sunny.6 mph88%29.80 "HgN/A
2:00 PM55 °FSprinkles. Partly sunny.3 mph88%29.83 "Hg4 mi
1:30 PM57 °FSprinkles. Partly sunny.8 mph82%29.83 "HgN/A
1:00 PM55 °FThunderstorms. Partly sunny.No wind94%29.83 "HgN/A
12:30 PM55 °FThunderstorms. Partly sunny.8 mph82%29.83 "HgN/A
12:00 PM63 °FThunderstorms. Partly sunny.10 mph68%29.83 "HgN/A
11:30 AM64 °FPartly sunny.8 mph64%29.83 "HgN/A
11:00 AM63 °FPartly sunny.8 mph73%29.83 "HgN/A
10:30 AM61 °FScattered clouds.6 mph77%29.86 "HgN/A
10:00 AM59 °FScattered clouds.8 mph82%29.86 "HgN/A
9:30 AM59 °FScattered clouds.6 mph82%29.86 "HgN/A
9:00 AM57 °FPassing clouds.6 mph88%29.86 "HgN/A
8:30 AM55 °FPassing clouds.6 mph94%29.86 "HgN/A
8:00 AM55 °FPartly sunny.6 mph94%29.86 "Hg6 mi
Weather by CustomWeather, © 2016

See weather overviewHow to use our weather pages